Weather History for Kansas City International, MO

Change the Weather History Date:

Saturday, December 17, 2011

  Actual Average Record
Temperature  
Mean Temperature 38 °F 31 °F  
Max Temperature 53 °F 40 °F 72 °F (1939)
Min Temperature 22 °F 22 °F -6 °F (1981)
Degree Days  
Heating Degree Days 27 34  
Month to date heating degree days 518 543  
Since 1 July heating degree days 1442 1545  
Cooling Degree Days 0 0  
Month to date cooling degree days 0 0  
Year to date cooling degree days 1598 1360  
Moisture  
Dew Point 27 °F    
Average Humidity 67    
Maximum Humidity 92    
Minimum Humidity 41    
Precipitation  
Precipitation 0.00 in 0.04 in 0.40 in (1929)
Month to date precipitation 1.60 0.94  
Year to date precipitation 35.49 38.27  
Snow  
Snow 0.00 in 0.20 in 6.30 in (1945)
Month to date snowfall T 2.5  
Since 1 July snowfall T 3.9  
Snow Depth 0.00 in    
Sea Level Pressure  
Sea Level Pressure 30.34 in    
Wind  
Wind Speed 7 mph (WSW)    
Max Wind Speed 14 mph    
Max Gust Speed 17 mph    
Visibility 10 miles    
Events      
T = Trace of Precipitation, MM = Missing Value Source: NWS Daily Summary

Daily Weather History Graph

Daily Weather History Graph

Search for Another Location

Airport:

Trip Planner

Search our weather history database for the weather conditions in past years. The results will help you decide how hot, cold, wet, or windy it might be!

Date:

Astronomy

Dec. 17, 2011 Rise Set
Actual Time 7:32 AM CST 4:57 PM CST
Civil Twilight 7:02 AM CST 5:27 PM CST
Nautical Twilight 6:28 AM CST 6:01 PM CST
Astronomical Twilight 5:56 AM CST 6:33 PM CST
Moon No Moon Rise 11:50 AM CST (12/17)
Length of Visible Light 10h 24m
Length of Day
9h 24m
Waning Gibbous, 53% of the Moon is Illuminated
Dec 17
Waning Gibbous
Dec 17
Last Quarter
Dec 24
New
Jan 1
First Quarter
Jan 9
Full

Hourly Weather History & Observations

Time (CST) Temp. Windchill Dew Point Humidity Pressure Visibility Wind Dir Wind Speed Gust Speed Precip Events Conditions
12:53 AM 30.9 °F 21.7 °F 25.0 °F 79% 30.35 in 10.0 mi SW 11.5 mph - N/A   Clear
1:53 AM 28.9 °F 21.1 °F 24.1 °F 82% 30.36 in 10.0 mi SW 8.1 mph - N/A   Clear
2:53 AM 28.9 °F 21.1 °F 24.1 °F 82% 30.35 in 10.0 mi WSW 8.1 mph - N/A   Clear
3:53 AM 28.9 °F 21.9 °F 24.1 °F 82% 30.36 in 10.0 mi WSW 6.9 mph - N/A   Clear
4:53 AM 27.0 °F 19.5 °F 23.0 °F 85% 30.37 in 10.0 mi WSW 6.9 mph - N/A   Clear
5:53 AM 27.0 °F 21.6 °F 24.1 °F 89% 30.38 in 10.0 mi WSW 4.6 mph - N/A   Mostly Cloudy
6:53 AM 25.0 °F 18.1 °F 23.0 °F 92% 30.38 in 10.0 mi SW 5.8 mph - N/A   Partly Cloudy
7:53 AM 26.1 °F 17.6 °F 24.1 °F 92% 30.38 in 10.0 mi WSW 8.1 mph - N/A   Partly Cloudy
8:53 AM 30.0 °F 23.2 °F 27.0 °F 88% 30.39 in 10.0 mi WSW 6.9 mph - N/A   Scattered Clouds
9:53 AM 34.0 °F 28.8 °F 28.9 °F 82% 30.40 in 10.0 mi SW 5.8 mph - N/A   Scattered Clouds
10:53 AM 37.9 °F 32.7 °F 30.0 °F 73% 30.38 in 10.0 mi WSW 6.9 mph - N/A   Mostly Cloudy
11:53 AM 44.1 °F 39.5 °F 30.9 °F 60% 30.35 in 10.0 mi SW 8.1 mph - N/A   Mostly Cloudy
12:53 PM 48.9 °F - 32.0 °F 52% 30.32 in 10.0 mi WSW 10.4 mph - N/A   Scattered Clouds
1:53 PM 53.1 °F - 30.9 °F 43% 30.31 in 10.0 mi West 9.2 mph - N/A   Scattered Clouds
2:53 PM 52.0 °F - 28.9 °F 41% 30.29 in 10.0 mi WSW 10.4 mph - N/A   Scattered Clouds
3:53 PM 50.0 °F - 28.9 °F 44% 30.30 in 10.0 mi West 9.2 mph - N/A   Scattered Clouds
4:53 PM 46.0 °F 41.9 °F 28.9 °F 51% 30.31 in 10.0 mi West 8.1 mph - N/A   Partly Cloudy
5:53 PM 44.6 °F 43.1 °F 28.4 °F 53% 30.28 in 10.0 mi SW 3.5 mph - N/A   Partly Cloudy
6:53 PM 42.1 °F 37.7 °F 28.9 °F 60% 30.32 in 10.0 mi WSW 6.9 mph - N/A   Clear
7:53 PM 41.0 °F 36.4 °F 28.9 °F 62% 30.32 in 10.0 mi WSW 6.9 mph - N/A   Clear
8:53 PM 39.0 °F 34.0 °F 28.9 °F 67% 30.33 in 10.0 mi WSW 6.9 mph - N/A   Clear
9:53 PM 39.9 °F 35.8 °F 28.0 °F 63% 30.32 in 10.0 mi WSW 5.8 mph - N/A   Clear
10:53 PM 37.9 °F 34.4 °F 28.0 °F 68% 30.32 in 10.0 mi SW 4.6 mph - N/A   Clear
11:53 PM 37.9 °F 33.5 °F 28.0 °F 68% 30.30 in 10.0 mi SW 5.8 mph - N/A   Clear